Year,Month,Day,Hour,Minute,Value (Times are PST for windgust in km/hr)
2019,06,20,00,00,25.70
2019,06,20,00,01,25.70
2019,06,20,00,02,14.50
2019,06,20,00,03,16.10
2019,06,20,00,04,9.60
2019,06,20,00,05,22.50
2019,06,20,00,06,17.70
2019,06,20,00,07,17.70
2019,06,20,00,08,8.10
2019,06,20,00,09,8.10
2019,06,20,00,10,12.90
2019,06,20,00,11,24.20
2019,06,20,00,12,11.30
2019,06,20,00,13,20.90
2019,06,20,00,14,17.70
2019,06,20,00,15,16.10
2019,06,20,00,16,24.20
2019,06,20,00,17,22.50
2019,06,20,00,18,16.10
2019,06,20,00,19,16.10
2019,06,20,00,20,11.30
2019,06,20,00,21,22.50
2019,06,20,00,22,20.90
2019,06,20,00,23,11.30
2019,06,20,00,24,16.10
2019,06,20,00,25,19.30
2019,06,20,00,26,22.50
2019,06,20,00,27,14.50
2019,06,20,00,28,17.70
2019,06,20,00,29,14.50
2019,06,20,00,30,9.60
2019,06,20,00,31,16.10
2019,06,20,00,32,17.70
2019,06,20,00,33,16.10
2019,06,20,00,34,20.90
2019,06,20,00,35,12.90
2019,06,20,00,36,20.90
2019,06,20,00,37,19.30
2019,06,20,00,38,12.90
2019,06,20,00,39,19.30
2019,06,20,00,40,20.90
2019,06,20,00,41,24.20
2019,06,20,00,42,20.90
2019,06,20,00,43,12.90
2019,06,20,00,44,12.90
2019,06,20,00,45,19.30
2019,06,20,00,46,22.50
2019,06,20,00,47,17.70
2019,06,20,00,48,16.10
2019,06,20,00,49,8.10
2019,06,20,00,50,17.70
2019,06,20,00,51,14.50
2019,06,20,00,52,9.60
2019,06,20,00,53,14.50
2019,06,20,00,54,14.50
2019,06,20,00,55,14.50
2019,06,20,00,56,12.90
2019,06,20,00,57,17.70
2019,06,20,00,58,16.10
2019,06,20,00,59,14.50
2019,06,20,01,00,20.90
2019,06,20,01,01,16.10
2019,06,20,01,02,16.10
2019,06,20,01,03,14.50
2019,06,20,01,04,9.60
2019,06,20,01,05,12.90
2019,06,20,01,06,14.50
2019,06,20,01,07,11.30
2019,06,20,01,08,14.50
2019,06,20,01,09,16.10
2019,06,20,01,10,14.50
2019,06,20,01,11,16.10
2019,06,20,01,12,12.90
2019,06,20,01,13,12.90
2019,06,20,01,14,11.30
2019,06,20,01,15,11.30
2019,06,20,01,16,14.50
2019,06,20,01,17,11.30
2019,06,20,01,18,19.30
2019,06,20,01,19,11.30
2019,06,20,01,20,11.30
2019,06,20,01,21,11.30
2019,06,20,01,22,17.70
2019,06,20,01,23,16.10
2019,06,20,01,24,11.30
2019,06,20,01,25,12.90
2019,06,20,01,26,6.40
2019,06,20,01,27,9.60
2019,06,20,01,28,11.30
2019,06,20,01,29,11.30
2019,06,20,01,30,16.10
2019,06,20,01,31,14.50
2019,06,20,01,32,14.50
2019,06,20,01,33,17.70
2019,06,20,01,34,17.70
2019,06,20,01,35,14.50
2019,06,20,01,36,17.70
2019,06,20,01,37,17.70
2019,06,20,01,38,16.10
2019,06,20,01,39,11.30
2019,06,20,01,40,11.30
2019,06,20,01,41,20.90
2019,06,20,01,42,16.10
2019,06,20,01,43,16.10
2019,06,20,01,44,12.90
2019,06,20,01,45,8.10
2019,06,20,01,46,16.10
2019,06,20,01,47,9.60
2019,06,20,01,48,9.60
2019,06,20,01,49,12.90
2019,06,20,01,50,16.10
2019,06,20,01,51,11.30
2019,06,20,01,52,11.30
2019,06,20,01,53,8.10
2019,06,20,01,54,11.30
2019,06,20,01,55,8.10
2019,06,20,01,56,4.80
2019,06,20,01,57,12.90
2019,06,20,01,58,11.30
2019,06,20,01,59,11.30
2019,06,20,02,00,11.30
2019,06,20,02,01,14.50
2019,06,20,02,02,11.30
2019,06,20,02,03,9.60
2019,06,20,02,04,9.60
2019,06,20,02,05,11.30
2019,06,20,02,06,12.90
2019,06,20,02,07,8.10
2019,06,20,02,08,8.10
2019,06,20,02,09,6.40
2019,06,20,02,10,11.30
2019,06,20,02,11,9.60
2019,06,20,02,12,9.60
2019,06,20,02,13,6.40
2019,06,20,02,14,6.40
2019,06,20,02,15,12.90
2019,06,20,02,16,8.10
2019,06,20,02,17,4.80
2019,06,20,02,18,12.90
2019,06,20,02,19,11.30
2019,06,20,02,20,8.10
2019,06,20,02,21,8.10
2019,06,20,02,22,9.60
2019,06,20,02,23,8.10
2019,06,20,02,24,9.60
2019,06,20,02,25,12.90
2019,06,20,02,26,11.30
2019,06,20,02,27,8.10
2019,06,20,02,28,9.60
2019,06,20,02,29,9.60
2019,06,20,02,30,9.60
2019,06,20,02,31,11.30
2019,06,20,02,32,9.60
2019,06,20,02,33,11.30
2019,06,20,02,34,6.40
2019,06,20,02,35,9.60
2019,06,20,02,36,9.60
2019,06,20,02,37,9.60
2019,06,20,02,38,8.10
2019,06,20,02,39,8.10
2019,06,20,02,40,9.60
2019,06,20,02,41,6.40
2019,06,20,02,42,4.80
2019,06,20,02,43,6.40
2019,06,20,02,44,8.10
2019,06,20,02,45,8.10
2019,06,20,02,46,4.80
2019,06,20,02,47,8.10
2019,06,20,02,48,8.10
2019,06,20,02,49,4.80
2019,06,20,02,50,8.10
2019,06,20,02,51,8.10
2019,06,20,02,52,8.10
2019,06,20,02,53,6.40
2019,06,20,02,54,8.10
2019,06,20,02,55,6.40
2019,06,20,02,56,8.10
2019,06,20,02,57,8.10
2019,06,20,02,58,6.40
2019,06,20,02,59,3.20
2019,06,20,03,00,6.40
2019,06,20,03,01,8.10
2019,06,20,03,02,8.10
2019,06,20,03,03,4.80
2019,06,20,03,04,4.80
2019,06,20,03,05,6.40
2019,06,20,03,06,4.80
2019,06,20,03,07,6.40
2019,06,20,03,08,4.80
2019,06,20,03,09,6.40
2019,06,20,03,10,6.40
2019,06,20,03,11,9.60
2019,06,20,03,12,6.40
2019,06,20,03,13,6.40
2019,06,20,03,14,8.10
2019,06,20,03,15,8.10
2019,06,20,03,16,8.10
2019,06,20,03,17,9.60
2019,06,20,03,18,9.60
2019,06,20,03,19,11.30
2019,06,20,03,20,9.60
2019,06,20,03,21,8.10
2019,06,20,03,22,9.60
2019,06,20,03,23,9.60
2019,06,20,03,24,11.30
2019,06,20,03,25,8.10
2019,06,20,03,26,11.30
2019,06,20,03,27,12.90
2019,06,20,03,28,11.30
2019,06,20,03,29,12.90
2019,06,20,03,30,8.10
2019,06,20,03,31,9.60
2019,06,20,03,32,11.30
2019,06,20,03,33,11.30
2019,06,20,03,34,9.60
2019,06,20,03,35,9.60
2019,06,20,03,36,9.60
2019,06,20,03,37,9.60
2019,06,20,03,38,8.10
2019,06,20,03,39,9.60
2019,06,20,03,40,6.40
2019,06,20,03,41,9.60
2019,06,20,03,42,11.30
2019,06,20,03,43,8.10
2019,06,20,03,44,8.10
2019,06,20,03,45,4.80
2019,06,20,03,46,8.10
2019,06,20,03,47,6.40
2019,06,20,03,48,9.60
2019,06,20,03,49,4.80
2019,06,20,03,50,8.10
2019,06,20,03,51,8.10
2019,06,20,03,52,6.40
2019,06,20,03,53,6.40
2019,06,20,03,54,6.40
2019,06,20,03,55,9.60
2019,06,20,03,56,9.60
2019,06,20,03,57,8.10
2019,06,20,03,58,9.60
2019,06,20,03,59,8.10
2019,06,20,04,00,8.10
2019,06,20,04,01,6.40
2019,06,20,04,02,8.10
2019,06,20,04,03,6.40
2019,06,20,04,04,6.40
2019,06,20,04,05,6.40
2019,06,20,04,06,4.80
2019,06,20,04,07,8.10
2019,06,20,04,08,8.10
2019,06,20,04,09,6.40
2019,06,20,04,10,6.40
2019,06,20,04,11,8.10
2019,06,20,04,12,6.40
2019,06,20,04,13,3.20
2019,06,20,04,14,3.20
2019,06,20,04,15,4.80
2019,06,20,04,16,4.80
2019,06,20,04,17,3.20
2019,06,20,04,18,6.40
2019,06,20,04,19,4.80
2019,06,20,04,20,1.60
2019,06,20,04,21,4.80
2019,06,20,04,22,4.80
2019,06,20,04,23,3.20
2019,06,20,04,24,4.80
2019,06,20,04,25,6.40
2019,06,20,04,26,4.80
2019,06,20,04,27,4.80
2019,06,20,04,28,3.20
2019,06,20,04,29,1.60
2019,06,20,04,30,4.80
2019,06,20,04,31,4.80
2019,06,20,04,32,3.20
2019,06,20,04,33,3.20
2019,06,20,04,34,3.20
2019,06,20,04,35,3.20
2019,06,20,04,36,3.20
2019,06,20,04,37,3.20
2019,06,20,04,38,3.20
2019,06,20,04,39,3.20
2019,06,20,04,40,3.20
2019,06,20,04,41,4.80
2019,06,20,04,42,4.80
2019,06,20,04,43,3.20
2019,06,20,04,44,4.80
2019,06,20,04,45,4.80
2019,06,20,04,46,4.80
2019,06,20,04,47,3.20
2019,06,20,04,48,4.80
2019,06,20,04,49,6.40
2019,06,20,04,50,4.80
2019,06,20,04,51,4.80
2019,06,20,04,52,4.80
2019,06,20,04,53,4.80
2019,06,20,04,54,6.40
2019,06,20,04,55,6.40
2019,06,20,04,56,4.80
2019,06,20,04,57,6.40
2019,06,20,04,58,9.60
2019,06,20,04,59,9.60
2019,06,20,05,00,6.40
2019,06,20,05,01,6.40
2019,06,20,05,02,4.80
2019,06,20,05,03,4.80
2019,06,20,05,04,4.80
2019,06,20,05,05,4.80
2019,06,20,05,06,4.80
2019,06,20,05,07,4.80
2019,06,20,05,08,4.80
2019,06,20,05,09,4.80
2019,06,20,05,10,6.40
2019,06,20,05,11,4.80
2019,06,20,05,12,4.80
2019,06,20,05,13,6.40
2019,06,20,05,14,6.40
2019,06,20,05,15,6.40
2019,06,20,05,16,4.80
2019,06,20,05,17,6.40
2019,06,20,05,18,6.40
2019,06,20,05,19,6.40
2019,06,20,05,20,8.10
2019,06,20,05,21,8.10
2019,06,20,05,22,6.40
2019,06,20,05,23,3.20
2019,06,20,05,24,3.20
2019,06,20,05,25,4.80
2019,06,20,05,26,6.40
2019,06,20,05,27,4.80
2019,06,20,05,28,3.20
2019,06,20,05,29,3.20
2019,06,20,05,30,4.80
2019,06,20,05,32,3.20
2019,06,20,05,33,4.80
2019,06,20,05,34,4.80
2019,06,20,05,35,6.40
2019,06,20,05,36,4.80
2019,06,20,05,37,6.40
2019,06,20,05,38,6.40
2019,06,20,05,39,6.40
2019,06,20,05,40,4.80
2019,06,20,05,41,4.80
2019,06,20,05,42,4.80
2019,06,20,05,43,6.40
2019,06,20,05,44,4.80
2019,06,20,05,45,4.80
2019,06,20,05,46,3.20
2019,06,20,05,47,3.20
2019,06,20,05,48,1.60
2019,06,20,05,49,3.20
2019,06,20,05,50,1.60
2019,06,20,05,51,1.60
2019,06,20,05,52,1.60
2019,06,20,05,53,3.20
2019,06,20,05,54,3.20
2019,06,20,05,55,4.80
2019,06,20,05,56,6.40
2019,06,20,05,57,8.10
2019,06,20,05,58,4.80
2019,06,20,05,59,6.40
2019,06,20,06,00,4.80
2019,06,20,06,01,4.80
2019,06,20,06,02,8.10
2019,06,20,06,03,6.40
2019,06,20,06,04,3.20
2019,06,20,06,05,1.60
2019,06,20,06,06,4.80
2019,06,20,06,07,6.40
2019,06,20,06,08,4.80
2019,06,20,06,09,6.40
2019,06,20,06,10,6.40
2019,06,20,06,11,8.10
2019,06,20,06,12,8.10
2019,06,20,06,13,6.40
2019,06,20,06,14,4.80
2019,06,20,06,15,3.20
2019,06,20,06,16,3.20
2019,06,20,06,17,4.80
2019,06,20,06,18,8.10
2019,06,20,06,19,4.80
2019,06,20,06,20,4.80
2019,06,20,06,21,4.80
2019,06,20,06,22,3.20
2019,06,20,06,23,4.80
2019,06,20,06,24,4.80
2019,06,20,06,25,8.10
2019,06,20,06,26,4.80
2019,06,20,06,27,4.80
2019,06,20,06,28,4.80
2019,06,20,06,29,4.80
2019,06,20,06,30,6.40
2019,06,20,06,31,4.80
2019,06,20,06,32,3.20
2019,06,20,06,33,1.60
2019,06,20,06,34,4.80
2019,06,20,06,35,6.40
2019,06,20,06,36,4.80
2019,06,20,06,37,4.80
2019,06,20,06,38,4.80
2019,06,20,06,39,1.60
2019,06,20,06,41,3.20
2019,06,20,06,42,3.20
2019,06,20,06,43,1.60
2019,06,20,06,44,3.20
2019,06,20,06,45,1.60
2019,06,20,06,46,1.60
2019,06,20,06,47,3.20
2019,06,20,06,48,1.60
2019,06,20,06,49,3.20
2019,06,20,06,50,1.60
2019,06,20,06,51,1.60
2019,06,20,06,52,1.60
2019,06,20,06,53,3.20
2019,06,20,06,54,1.60
2019,06,20,06,55,3.20
2019,06,20,06,56,3.20
2019,06,20,06,57,3.20
2019,06,20,06,58,3.20
2019,06,20,06,59,3.20
2019,06,20,07,00,3.20
2019,06,20,07,01,3.20
2019,06,20,07,02,1.60
2019,06,20,07,03,1.60
2019,06,20,07,07,1.60
2019,06,20,07,08,1.60
2019,06,20,07,11,1.60
2019,06,20,07,12,1.60
2019,06,20,07,14,1.60
2019,06,20,07,15,1.60
2019,06,20,07,18,1.60
2019,06,20,07,19,1.60
2019,06,20,07,20,1.60
2019,06,20,07,21,1.60
2019,06,20,07,22,1.60
2019,06,20,07,23,1.60
2019,06,20,07,24,1.60
2019,06,20,07,25,3.20
2019,06,20,07,26,1.60
2019,06,20,07,27,1.60
2019,06,20,07,28,1.60
2019,06,20,07,29,3.20
2019,06,20,07,30,3.20
2019,06,20,07,31,3.20
2019,06,20,07,32,3.20
2019,06,20,07,33,1.60
2019,06,20,07,34,3.20
2019,06,20,07,35,1.60
2019,06,20,07,36,1.60
2019,06,20,07,37,3.20
2019,06,20,07,38,3.20
2019,06,20,07,39,4.80
2019,06,20,07,40,3.20
2019,06,20,07,41,3.20
2019,06,20,07,42,3.20
2019,06,20,07,43,1.60
2019,06,20,07,44,1.60
2019,06,20,07,45,1.60
2019,06,20,07,46,1.60
2019,06,20,07,48,1.60
2019,06,20,07,49,1.60
2019,06,20,07,51,1.60
2019,06,20,07,52,1.60
2019,06,20,07,53,3.20
2019,06,20,07,54,1.60
2019,06,20,07,55,1.60
2019,06,20,07,56,1.60
2019,06,20,07,58,1.60
2019,06,20,07,59,1.60
2019,06,20,08,00,1.60
2019,06,20,08,01,1.60
2019,06,20,08,02,1.60
2019,06,20,08,03,1.60
2019,06,20,08,04,1.60
2019,06,20,08,05,1.60
2019,06,20,08,06,1.60
2019,06,20,08,07,1.60
2019,06,20,08,08,1.60
2019,06,20,08,09,3.20
2019,06,20,08,10,3.20
2019,06,20,08,11,3.20
2019,06,20,08,12,3.20
2019,06,20,08,13,1.60
2019,06,20,08,14,3.20
2019,06,20,08,15,3.20
2019,06,20,08,16,3.20
2019,06,20,08,17,1.60
2019,06,20,08,18,1.60
2019,06,20,08,19,3.20
2019,06,20,08,20,1.60
2019,06,20,08,21,1.60
2019,06,20,08,22,1.60
2019,06,20,08,23,1.60
2019,06,20,08,26,1.60
2019,06,20,08,27,3.20
2019,06,20,08,28,3.20
2019,06,20,08,29,1.60
2019,06,20,08,30,3.20
2019,06,20,08,31,3.20
2019,06,20,08,32,3.20
2019,06,20,08,33,3.20
2019,06,20,08,34,6.40
2019,06,20,08,35,3.20
2019,06,20,08,36,3.20
2019,06,20,08,37,3.20
2019,06,20,08,38,8.10
2019,06,20,08,39,6.40
2019,06,20,08,40,9.60
2019,06,20,08,41,8.10
2019,06,20,08,42,6.40
2019,06,20,08,43,8.10
2019,06,20,08,44,8.10
2019,06,20,08,45,8.10
2019,06,20,08,46,6.40
2019,06,20,08,47,1.60
2019,06,20,08,48,8.10
2019,06,20,08,49,6.40
2019,06,20,08,50,8.10
2019,06,20,08,51,8.10
2019,06,20,08,52,11.30
2019,06,20,08,53,6.40
2019,06,20,08,54,6.40
2019,06,20,08,55,6.40
2019,06,20,08,56,8.10
2019,06,20,08,57,6.40
2019,06,20,08,58,16.10
2019,06,20,08,59,14.50
2019,06,20,09,00,9.60
2019,06,20,09,01,3.20
2019,06,20,09,02,8.10
2019,06,20,09,03,9.60
2019,06,20,09,04,8.10
2019,06,20,09,05,12.90
2019,06,20,09,06,11.30
2019,06,20,09,07,12.90
2019,06,20,09,08,11.30
2019,06,20,09,09,14.50
2019,06,20,09,10,16.10
2019,06,20,09,11,17.70
2019,06,20,09,12,11.30
2019,06,20,09,13,11.30
2019,06,20,09,14,17.70
2019,06,20,09,15,19.30
2019,06,20,09,16,11.30
2019,06,20,09,17,12.90
2019,06,20,09,18,11.30
2019,06,20,09,19,14.50
2019,06,20,09,20,11.30
2019,06,20,09,21,11.30
2019,06,20,09,22,12.90
2019,06,20,09,23,14.50
2019,06,20,09,24,14.50
2019,06,20,09,25,14.50
2019,06,20,09,26,11.30
2019,06,20,09,27,4.80
2019,06,20,09,28,3.20
2019,06,20,09,29,8.10
2019,06,20,09,30,9.60
2019,06,20,09,31,12.90
2019,06,20,09,32,9.60
2019,06,20,09,33,12.90
2019,06,20,09,34,14.50
2019,06,20,09,35,12.90
2019,06,20,09,36,9.60
2019,06,20,09,37,11.30
2019,06,20,09,38,12.90
2019,06,20,09,39,11.30
2019,06,20,09,40,8.10
2019,06,20,09,41,11.30
2019,06,20,09,42,8.10
2019,06,20,09,43,11.30
2019,06,20,09,44,12.90
2019,06,20,09,45,3.20
2019,06,20,09,46,11.30
2019,06,20,09,47,11.30
2019,06,20,09,48,11.30
2019,06,20,09,49,8.10
2019,06,20,09,50,11.30
2019,06,20,09,51,14.50
2019,06,20,09,52,11.30
2019,06,20,09,53,12.90
2019,06,20,09,54,9.60
2019,06,20,09,55,14.50
2019,06,20,09,56,16.10
2019,06,20,09,57,16.10
2019,06,20,09,58,11.30
2019,06,20,09,59,9.60
2019,06,20,10,00,8.10
2019,06,20,10,01,12.90
2019,06,20,10,02,11.30
2019,06,20,10,03,9.60
2019,06,20,10,04,6.40
2019,06,20,10,05,9.60
2019,06,20,10,06,8.10
2019,06,20,10,07,8.10
2019,06,20,10,08,8.10
2019,06,20,10,09,8.10
2019,06,20,10,10,8.10
2019,06,20,10,11,11.30
2019,06,20,10,12,11.30
2019,06,20,10,13,9.60
2019,06,20,10,14,8.10
2019,06,20,10,15,8.10
2019,06,20,10,16,8.10
2019,06,20,10,17,8.10
2019,06,20,10,18,8.10
2019,06,20,10,19,6.40
2019,06,20,10,20,6.40
2019,06,20,10,21,6.40
2019,06,20,10,22,6.40
2019,06,20,10,23,17.70
2019,06,20,10,24,14.50
2019,06,20,10,25,11.30
2019,06,20,10,26,9.60
2019,06,20,10,27,12.90
2019,06,20,10,28,12.90
2019,06,20,10,29,14.50
2019,06,20,10,30,11.30
2019,06,20,10,31,11.30
2019,06,20,10,32,12.90
2019,06,20,10,33,12.90
2019,06,20,10,34,8.10
2019,06,20,10,35,9.60
2019,06,20,10,36,14.50
2019,06,20,10,37,12.90
2019,06,20,10,38,14.50
2019,06,20,10,39,11.30
2019,06,20,10,40,8.10
2019,06,20,10,41,6.40
2019,06,20,10,42,11.30
2019,06,20,10,43,9.60
2019,06,20,10,44,11.30
2019,06,20,10,45,12.90
2019,06,20,10,46,11.30
2019,06,20,10,47,12.90
2019,06,20,10,48,16.10
2019,06,20,10,49,12.90
2019,06,20,10,50,11.30
2019,06,20,10,51,12.90
2019,06,20,10,52,11.30
2019,06,20,10,53,11.30
2019,06,20,10,54,9.60
2019,06,20,10,55,11.30
2019,06,20,10,56,9.60
2019,06,20,10,57,8.10
2019,06,20,10,58,8.10
2019,06,20,10,59,11.30
2019,06,20,11,00,11.30
2019,06,20,11,01,6.40
2019,06,20,11,02,3.20
2019,06,20,11,03,3.20
2019,06,20,11,04,11.30
2019,06,20,11,05,9.60
2019,06,20,11,06,9.60
2019,06,20,11,07,6.40
2019,06,20,11,08,8.10
2019,06,20,11,09,6.40
2019,06,20,11,10,6.40
2019,06,20,11,11,9.60
2019,06,20,11,12,12.90
2019,06,20,11,13,14.50
2019,06,20,11,14,9.60
2019,06,20,11,15,9.60
2019,06,20,11,16,3.20
2019,06,20,11,17,11.30
2019,06,20,11,18,9.60
2019,06,20,11,19,12.90
2019,06,20,11,20,14.50
2019,06,20,11,21,11.30
2019,06,20,11,22,11.30
2019,06,20,11,23,12.90
2019,06,20,11,24,8.10
2019,06,20,11,25,17.70
2019,06,20,11,26,17.70
2019,06,20,11,27,19.30
2019,06,20,11,28,14.50
2019,06,20,11,29,17.70
2019,06,20,11,30,12.90
2019,06,20,11,31,11.30
2019,06,20,11,32,14.50
2019,06,20,11,33,11.30
2019,06,20,11,34,12.90
2019,06,20,11,35,14.50
2019,06,20,11,36,11.30
2019,06,20,11,37,12.90
2019,06,20,11,38,11.30
2019,06,20,11,39,12.90
2019,06,20,11,40,8.10
2019,06,20,11,41,12.90
2019,06,20,11,42,14.50
2019,06,20,11,43,9.60
2019,06,20,11,44,17.70
2019,06,20,11,45,17.70
2019,06,20,11,46,9.60
2019,06,20,11,47,16.10
2019,06,20,11,48,12.90
2019,06,20,11,49,11.30
2019,06,20,11,50,14.50
2019,06,20,11,51,11.30
2019,06,20,11,52,14.50
2019,06,20,11,53,20.90
2019,06,20,11,54,19.30
2019,06,20,11,55,14.50
2019,06,20,11,56,20.90
2019,06,20,11,57,22.50
2019,06,20,11,58,24.20
2019,06,20,11,59,20.90
2019,06,20,12,00,20.90
2019,06,20,12,01,19.30
2019,06,20,12,02,20.90
2019,06,20,12,03,14.50
2019,06,20,12,04,19.30
2019,06,20,12,05,19.30
2019,06,20,12,06,20.90
2019,06,20,12,07,20.90
2019,06,20,12,08,22.50
2019,06,20,12,09,19.30
2019,06,20,12,10,17.70
2019,06,20,12,11,22.50
2019,06,20,12,12,24.20
2019,06,20,12,13,24.20
2019,06,20,12,14,17.70
2019,06,20,12,15,19.30
2019,06,20,12,16,19.30
2019,06,20,12,17,11.30
2019,06,20,12,18,20.90
2019,06,20,12,19,24.20
2019,06,20,12,20,17.70
2019,06,20,12,21,20.90
2019,06,20,12,22,20.90
2019,06,20,12,23,19.30
2019,06,20,12,24,20.90
2019,06,20,12,25,16.10
2019,06,20,12,26,14.50
2019,06,20,12,27,14.50
2019,06,20,12,28,14.50
2019,06,20,12,29,19.30
2019,06,20,12,30,17.70
2019,06,20,12,31,22.50
2019,06,20,12,32,20.90
2019,06,20,12,33,20.90
2019,06,20,12,34,24.20
2019,06,20,12,35,20.90
2019,06,20,12,36,20.90
2019,06,20,12,37,24.20
2019,06,20,12,38,24.20
2019,06,20,12,39,22.50
2019,06,20,12,40,22.50
2019,06,20,12,41,24.20
2019,06,20,12,42,22.50
2019,06,20,12,43,22.50
2019,06,20,12,44,24.20
2019,06,20,12,45,22.50
2019,06,20,12,46,16.10
2019,06,20,12,47,17.70
2019,06,20,12,48,14.50
2019,06,20,12,49,17.70
2019,06,20,12,50,17.70
2019,06,20,12,51,16.10
2019,06,20,12,52,17.70
2019,06,20,12,53,22.50
2019,06,20,12,54,22.50
2019,06,20,12,55,20.90
2019,06,20,12,56,24.20
2019,06,20,12,57,22.50
2019,06,20,12,58,24.20
2019,06,20,12,59,22.50
2019,06,20,13,00,25.70
2019,06,20,13,01,20.90
2019,06,20,13,02,14.50
2019,06,20,13,03,24.20
2019,06,20,13,04,27.40
2019,06,20,13,05,20.90
2019,06,20,13,06,24.20
2019,06,20,13,07,22.50
2019,06,20,13,08,22.50
2019,06,20,13,09,22.50
2019,06,20,13,10,25.70
2019,06,20,13,11,25.70
2019,06,20,13,12,20.90
2019,06,20,13,13,24.20
2019,06,20,13,14,25.70
2019,06,20,13,15,27.40
2019,06,20,13,16,25.70
2019,06,20,13,17,30.60
2019,06,20,13,18,32.20
2019,06,20,13,19,25.70
2019,06,20,13,20,22.50
2019,06,20,13,21,19.30
2019,06,20,13,22,16.10
2019,06,20,13,23,11.30
2019,06,20,13,24,29.00
2019,06,20,13,25,32.20
2019,06,20,13,26,27.40
2019,06,20,13,27,25.70
2019,06,20,13,28,30.60
2019,06,20,13,29,22.50
2019,06,20,13,30,20.90
2019,06,20,13,31,24.20
2019,06,20,13,32,27.40
2019,06,20,13,33,20.90
2019,06,20,13,34,17.70
2019,06,20,13,35,24.20
2019,06,20,13,36,22.50
2019,06,20,13,37,22.50
2019,06,20,13,38,22.50
2019,06,20,13,39,19.30
2019,06,20,13,40,16.10
2019,06,20,13,41,25.70
2019,06,20,13,42,25.70
2019,06,20,13,43,19.30
2019,06,20,13,44,22.50
2019,06,20,13,45,27.40
2019,06,20,13,46,19.30
2019,06,20,13,47,17.70
2019,06,20,13,48,19.30
2019,06,20,13,49,22.50
2019,06,20,13,50,22.50
2019,06,20,13,51,22.50
2019,06,20,13,52,22.50
2019,06,20,13,53,24.20
2019,06,20,13,54,20.90
2019,06,20,13,55,19.30
2019,06,20,13,56,16.10
2019,06,20,13,57,24.20
2019,06,20,13,58,24.20
2019,06,20,13,59,25.70
2019,06,20,14,00,20.90
2019,06,20,14,01,16.10
2019,06,20,14,02,19.30
2019,06,20,14,03,24.20
2019,06,20,14,04,27.40
2019,06,20,14,05,27.40
2019,06,20,14,06,22.50
2019,06,20,14,07,24.20
2019,06,20,14,08,25.70
2019,06,20,14,09,24.20
2019,06,20,14,10,25.70
2019,06,20,14,11,24.20
2019,06,20,14,12,25.70
2019,06,20,14,13,19.30
2019,06,20,14,14,25.70
2019,06,20,14,15,24.20
2019,06,20,14,16,25.70
2019,06,20,14,17,19.30
2019,06,20,14,18,25.70
2019,06,20,14,19,22.50
2019,06,20,14,20,25.70
2019,06,20,14,21,25.70
2019,06,20,14,22,24.20
2019,06,20,14,23,29.00
2019,06,20,14,24,22.50
2019,06,20,14,25,22.50
2019,06,20,14,26,24.20
2019,06,20,14,27,32.20
2019,06,20,14,28,25.70
2019,06,20,14,29,24.20
2019,06,20,14,30,20.90
2019,06,20,14,31,22.50
2019,06,20,14,32,20.90
2019,06,20,14,33,22.50
2019,06,20,14,34,22.50
2019,06,20,14,35,22.50
2019,06,20,14,36,20.90
2019,06,20,14,37,16.10
2019,06,20,14,38,20.90
2019,06,20,14,39,19.30
2019,06,20,14,40,22.50
2019,06,20,14,41,17.70
2019,06,20,14,42,30.60
2019,06,20,14,43,27.40
2019,06,20,14,44,24.20
2019,06,20,14,45,17.70
2019,06,20,14,46,24.20
2019,06,20,14,47,24.20
2019,06,20,14,48,24.20
2019,06,20,14,49,19.30
2019,06,20,14,50,22.50
2019,06,20,14,51,24.20
2019,06,20,14,52,22.50
2019,06,20,14,53,29.00
2019,06,20,14,54,24.20
2019,06,20,14,55,16.10
2019,06,20,14,56,22.50
2019,06,20,14,57,20.90
2019,06,20,14,58,20.90
2019,06,20,14,59,16.10
2019,06,20,15,00,22.50
2019,06,20,15,01,22.50
2019,06,20,15,02,19.30
2019,06,20,15,03,16.10
2019,06,20,15,04,22.50
2019,06,20,15,05,22.50
2019,06,20,15,06,19.30
2019,06,20,15,07,19.30
2019,06,20,15,08,22.50
2019,06,20,15,09,20.90
2019,06,20,15,10,29.00
2019,06,20,15,11,27.40
2019,06,20,15,12,20.90
2019,06,20,15,13,19.30
2019,06,20,15,14,22.50
2019,06,20,15,15,19.30
2019,06,20,15,16,25.70
2019,06,20,15,17,24.20
2019,06,20,15,18,30.60
2019,06,20,15,19,24.20
2019,06,20,15,20,24.20
2019,06,20,15,21,24.20
2019,06,20,15,22,25.70
2019,06,20,15,23,22.50
2019,06,20,15,24,27.40
2019,06,20,15,25,30.60
2019,06,20,15,26,30.60
2019,06,20,15,27,25.70
2019,06,20,15,28,29.00
2019,06,20,15,29,24.20
2019,06,20,15,30,20.90
2019,06,20,15,31,19.30
2019,06,20,15,32,17.70
2019,06,20,15,33,19.30
2019,06,20,15,34,20.90
2019,06,20,15,35,19.30
2019,06,20,15,36,20.90
2019,06,20,15,37,17.70
2019,06,20,15,38,19.30
2019,06,20,15,39,20.90
2019,06,20,15,40,19.30
2019,06,20,15,41,12.90
2019,06,20,15,42,16.10
2019,06,20,15,43,19.30
2019,06,20,15,44,16.10
2019,06,20,15,45,19.30
2019,06,20,15,46,24.20
2019,06,20,15,47,29.00
2019,06,20,15,48,22.50
2019,06,20,15,49,24.20
2019,06,20,15,50,27.40
2019,06,20,15,51,22.50
2019,06,20,15,52,29.00
2019,06,20,15,53,29.00
2019,06,20,15,54,25.70
2019,06,20,15,55,25.70
2019,06,20,15,56,27.40
2019,06,20,15,57,20.90
2019,06,20,15,58,19.30
2019,06,20,15,59,17.70
2019,06,20,16,00,16.10
2019,06,20,16,01,17.70
2019,06,20,16,02,19.30
2019,06,20,16,03,20.90
2019,06,20,16,04,20.90
2019,06,20,16,05,22.50
2019,06,20,16,06,16.10
2019,06,20,16,07,22.50
2019,06,20,16,08,19.30
2019,06,20,16,09,22.50
2019,06,20,16,10,22.50
2019,06,20,16,11,22.50
2019,06,20,16,12,20.90
2019,06,20,16,13,20.90
2019,06,20,16,14,20.90
2019,06,20,16,15,22.50
2019,06,20,16,16,25.70
2019,06,20,16,17,9.60
2019,06,20,16,18,9.60
2019,06,20,16,19,19.30
2019,06,20,16,20,24.20
2019,06,20,16,21,19.30
2019,06,20,16,22,17.70
2019,06,20,16,23,11.30
2019,06,20,16,24,17.70
2019,06,20,16,25,16.10
2019,06,20,16,26,32.20
2019,06,20,16,27,20.90
2019,06,20,16,28,22.50
2019,06,20,16,29,27.40
2019,06,20,16,30,20.90
2019,06,20,16,31,16.10
2019,06,20,16,32,22.50
2019,06,20,16,33,25.70
2019,06,20,16,34,20.90
2019,06,20,16,35,17.70
2019,06,20,16,36,11.30
2019,06,20,16,37,17.70
2019,06,20,16,38,14.50
2019,06,20,16,39,17.70
2019,06,20,16,40,24.20
2019,06,20,16,41,16.10
2019,06,20,16,42,25.70
2019,06,20,16,43,24.20
2019,06,20,16,44,19.30
2019,06,20,16,45,20.90
2019,06,20,16,46,24.20
2019,06,20,16,47,22.50
2019,06,20,16,48,14.50
2019,06,20,16,49,30.60
2019,06,20,16,50,25.70
2019,06,20,16,51,20.90
2019,06,20,16,52,20.90
2019,06,20,16,53,17.70
2019,06,20,16,54,25.70
2019,06,20,16,55,25.70
2019,06,20,16,56,30.60
2019,06,20,16,57,20.90
2019,06,20,16,58,12.90
2019,06,20,16,59,16.10
2019,06,20,17,00,19.30
2019,06,20,17,01,19.30
2019,06,20,17,02,25.70
2019,06,20,17,03,16.10
2019,06,20,17,04,30.60
2019,06,20,17,05,27.40
2019,06,20,17,06,22.50
2019,06,20,17,07,24.20
2019,06,20,17,08,14.50
2019,06,20,17,09,25.70
2019,06,20,17,10,32.20
2019,06,20,17,11,22.50
2019,06,20,17,12,32.20
2019,06,20,17,13,27.40
2019,06,20,17,14,27.40
2019,06,20,17,15,17.70
2019,06,20,17,16,20.90
2019,06,20,17,17,20.90
2019,06,20,17,18,22.50
2019,06,20,17,19,19.30
2019,06,20,17,20,17.70
2019,06,20,17,21,29.00
2019,06,20,17,22,20.90
2019,06,20,17,23,27.40
2019,06,20,17,24,29.00
2019,06,20,17,25,25.70
2019,06,20,17,26,12.90
2019,06,20,17,27,24.20
2019,06,20,17,28,25.70
2019,06,20,17,29,20.90
2019,06,20,17,30,22.50
2019,06,20,17,31,19.30
2019,06,20,17,32,22.50
2019,06,20,17,33,30.60
2019,06,20,17,34,16.10
2019,06,20,17,35,17.70
2019,06,20,17,36,30.60
2019,06,20,17,37,20.90
2019,06,20,17,38,16.10
2019,06,20,17,39,17.70
2019,06,20,17,40,14.50
2019,06,20,17,41,27.40
2019,06,20,17,42,29.00
2019,06,20,17,43,17.70
2019,06,20,17,44,24.20
2019,06,20,17,45,27.40
2019,06,20,17,46,27.40
2019,06,20,17,47,22.50
2019,06,20,17,48,22.50
2019,06,20,17,49,27.40
2019,06,20,17,50,24.20
2019,06,20,17,51,27.40
2019,06,20,17,52,22.50
2019,06,20,17,53,30.60
2019,06,20,17,54,33.80